Regional Weather Roundup
Issued by NWS Little Rock, AR

Home | Current Version | Previous Version | Graphics & Text | Print | Product List | Glossary On
Versions: 1 2 3 4 5 6 7 8 9 10 11 12 13 14 15 16 17 18 19 20 21 22 23 24 25 26 27 28 29 30 31
000
ASUS44 KLZK 201305
RWRLZK

WEATHER ROUNDUP FOR ARKANSAS
NATIONAL WEATHER SERVICE LITTLE ROCK AR
700 AM CST MON FEB 20 2017

NOTE: "FAIR" INDICATES FEW OR NO CLOUDS BELOW 12,000 FEET WITH NO
SIGNIFICANT WEATHER AND/OR OBSTRUCTIONS TO VISIBILITY.

ARZ001-003-010-029-201400-
NORTHWEST ARKANSAS

CITY           SKY/WX    TMP DP  RH WIND       PRES   REMARKS
FAYETTEVILLE   RAIN      63  60  90 S16G24    29.91R FOG
FORT SMITH     CLOUDY    64  59  83 W17G26    29.93R
HARRISON       CLOUDY    62  53  72 S21       29.94F
BENTONVILLE    CLOUDY    64  55  72 S10       29.91R
ROGERS         CLOUDY    65  56  72 S18G24    29.90R
SILOAM SPGS    CLOUDY    61  55  82 SW15      29.92R
HIGHFILL       LGT RAIN  65  58  78 S20G29    29.89R
SPRINGDALE     LGT RAIN  63  59  88 S12G22    29.93R
$$

ARZ004-005-016-201400-
NORTH CENTRAL ARKANSAS

CITY           SKY/WX    TMP DP  RH WIND       PRES   REMARKS
BATESVILLE     CLOUDY    61  52  72 SE8       30.03S
FLIPPIN        PTCLDY    54  48  82 E7        29.96R
$$

ARZ040-041-201400-
WEST CENTRAL ARKANSAS

CITY           SKY/WX    TMP DP  RH WIND       PRES   REMARKS
MENA           CLOUDY    63  63 100 W9        29.97R
MOUNT IDA      CLOUDY    65  60  84 SE8       29.93S
$$

ARZ009-017-025-026-028-201400-
NORTHEAST ARKANSAS

CITY           SKY/WX    TMP DP  RH WIND       PRES   REMARKS
CORNING        FAIR      54  52  94 SE7       30.06R
JONESBORO      PTCLDY    53  50  89 E5        30.06R
NEWPORT        CLOUDY    54  50  86 S5        30.04R
WALNUT RIDGE   CLOUDY    54  46  76 SE6       30.04S
BLYTHEVILLE    CLOUDY    57  50  77 S6        30.08R
$$

ARZ022-023-033-042-044-201400-
CENTRAL ARKANSAS

CITY           SKY/WX    TMP DP  RH WIND       PRES   REMARKS
LITTLE ROCK    CLOUDY    54  54 100 CALM      30.02R
N LITTLE ROCK    N/A     58  54  88 S8        30.02R
JACKSONVILLE   CLOUDY    57  56  97 SE5       30.02R
SEARCY         CLEAR     55  53  93 CALM      30.05R
HOT SPRINGS    CLOUDY    62  59  90 E10       29.98S
RUSSELLVILLE   CLOUDY    61  55  81 SE6       29.99R
CLINTON        FAIR      45  45 100 CALM      30.03  FOG
$$

ARZ036-201400-
EAST ARKANSAS

CITY           SKY/WX    TMP DP  RH WIND       PRES   REMARKS
WEST MEMPHIS   CLEAR     56  52  86 SE7       30.05R
$$

ARZ050-053-066-070-073-201400-
SOUTHWEST ARKANSAS

CITY           SKY/WX    TMP DP  RH WIND       PRES   REMARKS
ARKADELPHIA    CLOUDY    57  55  93 NE3       29.98R
CAMDEN         PTCLDY    61  55  82 SE6       29.99R
TEXARKANA      CLOUDY    59  57  93 W6        29.97S
EL DORADO      PTCLDY    63  61  93 S6        30.00R
DE QUEEN       CLOUDY    61  57  87 N6        29.92F
$$

ARZ056-057-069-201400-
SOUTHEAST ARKANSAS

CITY           SKY/WX    TMP DP  RH WIND       PRES   REMARKS
PINE BLUFF     PTCLDY    52  51  97 SE8       30.03S
STUTTGART      PTCLDY    55  46  71 SE6       30.05R
MONTICELLO     CLOUDY    56  52  86 E3        30.04S

$$






USA.gov is the U.S. government's official web portal to all federal, state and local government web resources and services.